Regional Weather Roundup
Issued by NWS

Home | Current Version | Previous Version | Graphics & Text | Print | Product List | Glossary On
Versions: 1 2 3 4 5 6 7 8 9 10 11 12 13 14 15 16 17 18 19 20 21 22 23 24 25 26 27 28 29 30 31 32 33 34 35 36 37 38 39 40 41 42 43 44 45 46 47 48 49 50
000
ASUS45 KTFX 201904
RWRMT
MONTANA HOURLY WEATHER ROUNDUP
NATIONAL WEATHER SERVICE GREAT FALLS MT
104 PM MDT WED AUG 20 2014

NOTE: "FAIR" INDICATES FEW OR NO CLOUDS BELOW 12000 FEET WITH NO
SIGNIFICANT WEATHER AND/OR OBSTRUCTIONS TO VISIBILITY.

* THESE STATIONS ARE NOT UNDER NWS QUALITY CONTROL. THEY DO NOT
   REPORT WEATHER SUCH AS PRECIPITATION OR FOG.

MTZ001>007-043-202000-
WEST OF THE DIVIDE
CITY           SKY/WX    TMP DP  RH WIND       PRES   REMARKS
KALISPELL      CLOUDY    70  55  59 S10       29.87F
MISSOULA       CLOUDY    64  54  70 NW8       29.91F
BUTTE          PTSUNNY   72  39  30 N5        29.93F
MULLAN PASS    CLOUDY    55  48  77 VRB5      29.99S
* ESSEX        N/A       68  49  51 SE1        N/A
* LINCOLN      N/A       72  44  37 SW6G16     N/A
* LOOKOUT PASS N/A       60  52  75 NW3        N/A
* POLSON       N/A       58  57  96 S2         N/A
* RONAN APT    CLOUDY    61  57  87 N/A        N/A
* SEELEY LAKE  N/A       63  53  70 SW3        N/A
* THOMP F APT  CLOUDY    63  49  60 SE8G16     N/A
* YAAK HILL    N/A       72  48  43 N/A        N/A
$$

MTZ008-052>055-202000-
SOUTHWEST MONTANA
CITY           SKY/WX    TMP DP  RH WIND       PRES   REMARKS
BOZEMAN        SUNNY     73  43  34 CALM      29.90F
DILLON         TSTM      66  43  43 NW20G31   29.92F
W YELLOWSTONE  PTCLDY    55  50  83 CALM      30.09F
* THREE FORKS  PTCLDY    79  50  36 N/A        N/A
* BOULDER HILL N/A       67  36  32 S6         N/A
* RAYNOLDS PAS N/A       60  39  46 SE17G24    N/A
* WHITEHALL    N/A       74  46  37 W5         N/A
* WISE RIVER   N/A       68  46  45 SW6        N/A
$$

MTZ009>010-012-014-046-048-049-054-202000-
EAST SLOPES AND CENTRAL MONTANA
CITY           SKY/WX    TMP DP  RH WIND       PRES   REMARKS
CUT BANK       CLOUDY    72  48  43 NW12      29.85F
GREAT FALLS    PTSUNNY   79  45  30 N10       29.82F
HELENA         PTCLDY    79  45  30 VRB3      29.84F
MALMSTROM AFB  PTCLDY    77  45  32 N7G16     29.84F
* CONRAD       CLOUDY    73  52  48 N/A        N/A
* DEARBORN     N/A       80  43  27 S12        N/A
* EAST GLACIER N/A       65  47  52 W12G17     N/A
* MONARCH      N/A       72  42  34 N4G9       N/A
* PENDROY      N/A       71  47  43 VRB5G11    N/A
* ROGERS PASS  N/A       67  43  42 SE6G17     N/A
* SAINT MARY   N/A       61  54  78 NE7G15     N/A
* SWEET GRASS  N/A       67  53  61 NE13       N/A
$$

MTZ011-013-016-021-035-040-045-047-050-051-202000-
NORTH CENTRAL MONTANA
CITY           SKY/WX    TMP DP  RH WIND       PRES   REMARKS
HAVRE          PTCLDY    73  54  51 CALM      29.80F
LEWISTOWN      LGT RAIN  70  48  46 NW8       29.88S
* CHESTER      N/A       74  52  46 N2         N/A
* DENTON       N/A       73  50  44 VRB4       N/A
* GEYSER       N/A       76  46  35 W11        N/A
* JUDITH GAP   N/A       61  54  78 N11        N/A
* LOMA         N/A       72  53  51 SW3        N/A
$$

MTZ017>020-022>027-061-062-202000-
NORTHEAST MONTANA
CITY           SKY/WX    TMP DP  RH WIND       PRES   REMARKS
GLASGOW        CLOUDY    72  57  59 W9        29.76R
GLENDIVE       CLOUDY    64  59  84 NW15G22   29.76S
JORDAN         CLOUDY    70  54  57 NW12      29.79R
SIDNEY         CLOUDY    72  61  68 S3        29.75R
WOLF POINT     CLOUDY    79  57  47 NE3       29.71F
* BEAVER HILL  N/A       69  57  66 SW8        N/A
* CIRCLE       N/A       72  61  68 W7G14      N/A
* LINDSAY DVD  N/A       67  59  76 W7         N/A
* SACO         N/A       76  56  50 SW8G16     N/A
$$

MTZ028>042-056>058-202000-
SOUTHCENTRAL AND SOUTHEAST MONTANA
CITY           SKY/WX    TMP DP  RH WIND       PRES   REMARKS
BAKER          LGT RAIN  70  55  59 N16       29.78R
BILLINGS       PTSUNNY   75  45  34 NE7       29.86F
LIVINGSTON     PTCLDY    79  39  24 SW20G26   29.89F
MILES CITY     CLOUDY    79  55  44 NW15      29.76R
* LAUREL APT   PTCLDY    77  46  33 NE6        N/A
* ROUNDUP APT  PTSUNNY   75  48  39 N/A        N/A
* ALZADA       N/A       82  50  33 W13        N/A
* HYSHAM       N/A       76  45  33 VRB4G11    N/A
* LAME DEER    N/A       71  50  48 NW13G22    N/A
* REED POINT   N/A       77  47  35 W12G19     N/A
* ROSCOE HILL  N/A       68  45  44 W2G9       N/A
$$

REGIONAL REPORTS...DAKOTAS
CITY           SKY/WX    TMP DP  RH WIND       PRES   REMARKS
WILLISTON      CLOUDY    79  64  60 S9        29.72R
DICKINSON      LGT RAIN  72  66  81 N5        29.71S
BEACH          LGT RAIN  73  57  57 NW6       29.77R
CROSBY         PTSUNNY   73  68  84 S14G20    29.71R
TIOGA          SUNNY     73  72  97 S7        29.77R
WATFORD CITY   PTCLDY    75  64  69 CALM      29.72R
BISMARCK       CLOUDY    81  66  60 S7        29.72S HI  83
GRAND FORKS    PTSUNNY   82  66  58 SE13      29.77F HI  84
FARGO          CLOUDY    82  66  58 SE14      29.78S HI  84
BUFFALO SD     CLOUDY    82  57  43 NW9       29.66S HI  82
RAPID CITY     PTCLDY    84  59  43 SE9       29.74F HI  84
$$

REGIONAL REPORTS...WYOMING/IDAHO/WASHINGTON
CITY           SKY/WX    TMP DP  RH WIND       PRES   REMARKS
GILLETTE       SUNNY     81  45  28 NW17G23   29.85R
SHERIDAN       CLOUDY    75  45  34 NW22      29.87R
CODY           PTSUNNY   72  50  46 N12       29.94S
YELLOWSTONE LA CLOUDY    55  43  64 VRB7      30.15S
SALMON         PTSUNNY   68  52  57 S7        29.90R
MULLAN PASS    CLOUDY    55  48  77 VRB5      29.99S
SAND POINT     PTSUNNY   70  55  59 S6        29.84S
SPOKANE        CLOUDY    73  52  48 SW15      29.84S

$$




USA.gov is the U.S. government's official web portal to all federal, state and local government web resources and services.